Litchfield, IL

5:02 AM CDT on July 22, 2017 (GMT -0500)
Litchfield

Weather History for K3LF - May, 2013

Change the Weather History Date:

Tuesday, May 28, 2013

  Actual Average (KALN) Record (KALN)
Temperature  
Mean Temperature 72 °F -  
Max Temperature 81 °F 74 °F 93 °F (2012)
Min Temperature 63 °F 58 °F 50 °F (2005)
Cooling Degree Days 7    
Growing Degree Days 22 (Base 50)    
Moisture  
Dew Point 65 °F    
Average Humidity 82    
Maximum Humidity 95    
Minimum Humidity 65    
Precipitation  
Precipitation 0.01 in - - ()
Sea Level Pressure  
Sea Level Pressure 29.87 in    
Wind  
Wind Speed 13 mph (South)    
Max Wind Speed 31 mph    
Max Gust Speed 36 mph    
Visibility 10 miles    
Events Rain , Thunderstorm    
Averages and records for this station are not official NWS values.
T = Trace of Precipitation, MM = Missing Value Source: NWS Daily Summary

Daily Weather History Graph

Daily Weather History Graph

Search for Another Location

Airport or City:

Trip Planner

Search our weather history database for the weather conditions in past years. The results will help you decide how hot, cold, wet, or windy it might be!

Date:

Astronomy

May. 28, 2013 Rise Set
Actual Time 5:36 AM CDT 8:16 PM CDT
Civil Twilight 5:04 AM CDT 8:47 PM CDT
Nautical Twilight 4:25 AM CDT 9:26 PM CDT
Astronomical Twilight 3:41 AM CDT 10:10 PM CDT
Moon 11:40 PM CDT (5/28) 9:23 AM CDT (5/28)
Length of Visible Light 15h 42m
Length of Day
14h 40m
Waning Gibbous, 82% of the Moon is Illuminated
May 28
Waning Gibbous
May 31
Last Quarter
Jun 8
New
Jun 16
First Quarter
Jun 23
Full

Hourly Weather History & Observations

Time (CDT) Temp. Heat Index Dew Point Humidity Pressure Visibility Wind Dir Wind Speed Gust Speed Precip Events Conditions
12:15 AM 63.5 °F - 61.9 °F 94% 29.90 in 10.0 mi SE 10.4 mph - N/A   Clear
12:35 AM 63.7 °F - 62.2 °F 95% 29.90 in 10.0 mi SSE 8.1 mph - N/A   Clear
12:55 AM 64.4 °F - 62.6 °F 94% 29.90 in 10.0 mi SSE 9.2 mph - N/A   Clear
1:15 AM 64.4 °F - 62.6 °F 94% 29.88 in 10.0 mi SSE 9.2 mph - N/A   Clear
1:35 AM 64.4 °F - 62.8 °F 94% 29.88 in 10.0 mi SSE 8.1 mph - N/A   Clear
1:55 AM 64.4 °F - 62.8 °F 94% 29.87 in 10.0 mi SSE 8.1 mph - N/A   Clear
2:15 AM 64.8 °F - 63.0 °F 94% 29.87 in 10.0 mi SSE 8.1 mph - N/A   Clear
2:35 AM 64.4 °F - 63.0 °F 95% 29.86 in 10.0 mi SSE 8.1 mph - N/A   Clear
2:55 AM 64.8 °F - 62.8 °F 93% 29.85 in 10.0 mi SSE 8.1 mph - N/A   Clear
3:15 AM 64.6 °F - 62.2 °F 92% 29.85 in 10.0 mi South 8.1 mph - N/A   Clear
3:35 AM 64.8 °F - 62.1 °F 91% 29.83 in 10.0 mi South 8.1 mph - N/A   Clear
3:55 AM 65.3 °F - 61.7 °F 88% 29.84 in 10.0 mi South 9.2 mph - N/A   Clear
4:15 AM 65.1 °F - 61.7 °F 89% 29.85 in 10.0 mi South 9.2 mph - N/A   Clear
4:35 AM 66.2 °F - 61.3 °F 84% 29.86 in 10.0 mi South 13.8 mph - N/A   Clear
4:55 AM 66.2 °F - 61.5 °F 85% 29.88 in 10.0 mi South 11.5 mph - N/A   Clear
5:15 AM 66.2 °F - 61.7 °F 85% 29.88 in 10.0 mi South 10.4 mph - N/A   Clear
5:35 AM 66.2 °F - 61.9 °F 86% 29.90 in 10.0 mi South 10.4 mph - N/A   Scattered Clouds
5:55 AM 66.2 °F - 61.9 °F 86% 29.89 in 10.0 mi South 11.5 mph - N/A Rain Light Rain
6:15 AM 66.2 °F - 62.1 °F 86% 29.88 in 10.0 mi South 10.4 mph - N/A Rain Light Rain
6:35 AM 66.4 °F - 62.4 °F 87% 29.88 in 10.0 mi South 11.5 mph - N/A   Clear
6:55 AM 66.7 °F - 62.6 °F 86% 29.87 in 10.0 mi South 15.0 mph - N/A   Clear
7:15 AM 67.5 °F - 63.0 °F 85% 29.88 in 10.0 mi South 15.0 mph 19.6 mph N/A   Clear
7:35 AM 68.2 °F - 63.5 °F 85% 29.89 in 10.0 mi South 16.1 mph - N/A   Clear
7:55 AM 68.9 °F - 64.2 °F 85% 29.89 in 10.0 mi South 17.3 mph - N/A   Clear
8:15 AM 69.1 °F - 64.6 °F 86% 29.88 in 10.0 mi South 12.7 mph - N/A   Mostly Cloudy
8:35 AM 69.3 °F - 65.1 °F 87% 29.88 in 10.0 mi South 15.0 mph - N/A   Scattered Clouds
8:55 AM 69.8 °F - 65.3 °F 86% 29.89 in 10.0 mi South 15.0 mph - N/A Thunderstorm Mostly Cloudy
9:15 AM 69.6 °F - 65.3 °F 86% 29.88 in 10.0 mi South 17.3 mph - N/A Rain , Thunderstorm Light Thunderstorms and Rain
9:35 AM 68.9 °F - 65.3 °F 88% 29.90 in 10.0 mi South 11.5 mph - N/A Rain Light Rain
9:55 AM 68.2 °F - 65.5 °F 91% 29.87 in 10.0 mi South 15.0 mph - 0.01 in Rain Light Rain
10:15 AM 68.0 °F - 65.5 °F 92% 29.86 in 10.0 mi South 16.1 mph - N/A Rain Light Rain
10:35 AM 68.2 °F - 65.8 °F 92% 29.90 in 10.0 mi South 17.3 mph - N/A   Scattered Clouds
10:55 AM 68.2 °F - 65.8 °F 92% 29.88 in 7.0 mi South 21.9 mph - N/A Rain Light Rain
11:15 AM 68.7 °F - 65.7 °F 90% 29.88 in 10.0 mi South 25.3 mph 29.9 mph N/A   Scattered Clouds
11:35 AM 68.9 °F - 65.7 °F 89% 29.88 in 10.0 mi South 23.0 mph - N/A Rain Light Rain
11:55 AM 69.1 °F - 65.7 °F 89% 29.86 in 10.0 mi South 21.9 mph 29.9 mph N/A Thunderstorm Unknown
12:15 PM 70.0 °F - 65.8 °F 87% 29.86 in 10.0 mi SSW 24.2 mph 31.1 mph N/A Rain Light Rain
12:35 PM 70.0 °F - 66.2 °F 88% 29.88 in 10.0 mi SSW 17.3 mph 21.9 mph N/A   Clear
12:55 PM 69.8 °F - 66.4 °F 89% 29.87 in 10.0 mi SSW 15.0 mph - N/A Rain Light Rain
1:15 PM 71.2 °F - 67.1 °F 87% 29.83 in 10.0 mi South 31.1 mph - N/A Rain Light Rain
1:35 PM 73.4 °F - 68.9 °F 86% 29.85 in 10.0 mi South 28.8 mph 34.5 mph N/A   Clear
1:55 PM 76.1 °F - 70.2 °F 82% 29.81 in 10.0 mi South 25.3 mph 32.2 mph N/A   Clear
2:15 PM 76.6 °F - 69.1 °F 77% 29.83 in 10.0 mi South 16.1 mph 23.0 mph N/A   Clear
2:35 PM 76.5 °F - 68.0 °F 75% 29.84 in 10.0 mi SSW 15.0 mph 24.2 mph N/A   Clear
2:55 PM 79.2 °F - 69.8 °F 73% 29.85 in 10.0 mi SSW 19.6 mph 29.9 mph N/A   Clear
3:15 PM 79.2 °F - 69.4 °F 72% 29.84 in 10.0 mi South 24.2 mph 28.8 mph N/A   Clear
3:35 PM 81.1 °F 85.2 °F 71.2 °F 72% 29.84 in 10.0 mi SSW 24.2 mph 28.8 mph N/A   Clear
3:55 PM 81.0 °F 84.6 °F 70.5 °F 70% 29.84 in 10.0 mi SSW 26.5 mph 35.7 mph N/A   Clear
4:15 PM 81.1 °F 84.2 °F 68.9 °F 66% 29.85 in 10.0 mi SSW 26.5 mph 32.2 mph N/A   Clear
4:35 PM 80.6 °F 83.5 °F 68.5 °F 67% 29.85 in 10.0 mi South 21.9 mph 28.8 mph N/A   Clear
4:55 PM 80.8 °F 83.8 °F 68.9 °F 67% 29.83 in 10.0 mi South 20.7 mph 29.9 mph N/A   Clear
5:15 PM 79.7 °F - 68.7 °F 69% 29.83 in 10.0 mi South 19.6 mph 24.2 mph N/A   Clear
5:35 PM 79.7 °F - 69.1 °F 70% 29.84 in 10.0 mi South 15.0 mph - N/A   Clear
5:55 PM 80.2 °F 83.6 °F 70.3 °F 72% 29.86 in 10.0 mi SSW 11.5 mph - N/A   Clear
6:15 PM 80.8 °F 84.1 °F 69.8 °F 69% 29.86 in 10.0 mi SW 13.8 mph - N/A   Clear
6:35 PM 80.2 °F 82.7 °F 67.6 °F 65% 29.87 in 10.0 mi SSW 16.1 mph 25.3 mph N/A   Clear
6:55 PM 78.4 °F - 66.2 °F 66% 29.86 in 10.0 mi SSW 17.3 mph 23.0 mph N/A   Clear
7:15 PM 77.5 °F - 65.3 °F 66% 29.86 in 10.0 mi SSW 17.3 mph 23.0 mph N/A   Clear
7:35 PM 76.1 °F - 66.4 °F 72% 29.84 in 10.0 mi South 15.0 mph - N/A   Clear
7:55 PM 75.4 °F - 66.0 °F 73% 29.85 in 10.0 mi SSW 12.7 mph - N/A   Clear
8:15 PM 73.8 °F - 66.2 °F 77% 29.84 in 10.0 mi South 10.4 mph - N/A   Clear
8:35 PM 73.0 °F - 65.3 °F 77% 29.83 in 10.0 mi South 11.5 mph - N/A   Clear
8:55 PM 72.9 °F - 64.4 °F 75% 29.83 in 10.0 mi South 9.2 mph - N/A   Clear
9:15 PM 72.5 °F - 64.4 °F 76% 29.85 in 10.0 mi South 9.2 mph - N/A   Clear
9:35 PM 72.0 °F - 64.4 °F 77% 29.85 in 10.0 mi South 10.4 mph - N/A   Clear
9:55 PM 71.1 °F - 64.4 °F 79% 29.86 in 10.0 mi South 12.7 mph - N/A   Clear
10:15 PM 71.2 °F - 63.9 °F 77% 29.86 in 10.0 mi South 16.1 mph - N/A   Clear
10:35 PM 71.2 °F - 63.7 °F 77% 29.88 in 10.0 mi SSW 13.8 mph - N/A   Clear
10:55 PM 71.1 °F - 63.5 °F 77% 29.89 in 10.0 mi SSW 12.7 mph - N/A   Clear
11:15 PM 71.6 °F - 63.1 °F 75% 29.90 in 10.0 mi SSW 10.4 mph - N/A   Clear
11:35 PM 72.3 °F - 62.8 °F 72% 29.93 in 10.0 mi WSW 5.8 mph - N/A   Clear
11:55 PM 71.2 °F - 63.0 °F 75% 29.94 in 10.0 mi NW 5.8 mph - N/A   Clear